Location: ????????
(37.9452°N, 23.1472°E)
Time: 10:05:28
(UTC+00:00)

Cosmos 2366 rocket - Visible Passes

Search period start: 24 July 2024 00:00
Search period end: 03 August 2024 00:00
Orbit: 954 x 997 km, 82.9° (Epoch: 23 July)

Date Brightness Start Highest point End Pass type
(mag) Time Alt. Az. Time Alt. Az. Time Alt. Az.
24 Jul 3.9 19:14:41 10° S 19:20:48 77° E 19:26:57 10° N visible
24 Jul 6.5 21:03:47 10° W 21:06:52 14° WNW 21:09:58 10° NW visible
25 Jul 4.5 19:40:13 10° SSW 19:46:13 58° W 19:52:17 10° N visible
26 Jul 4.6 18:21:03 10° SSE 18:26:29 35° E 18:31:57 10° NNE visible
26 Jul 5.6 20:06:29 10° SW 20:11:49 31° WNW 20:17:12 10° NNW visible
27 Jul 3.9 18:45:40 10° S 18:51:42 66° E 18:57:48 10° NNE visible
27 Jul 6.4 20:33:49 10° WSW 20:37:37 17° WNW 20:41:26 10° NNW visible
28 Jul 4.3 19:10:59 10° SSW 19:17:04 68° W 19:23:13 10° N visible
29 Jul 5.4 19:37:03 10° SW 19:42:38 36° WNW 19:48:15 10° N visible
30 Jul 4.1 18:16:40 10° SSE 18:22:36 56° E 18:28:36 10° NNE visible
30 Jul 6.3 20:04:02 10° WSW 20:08:22 20° WNW 20:12:44 10° NNW visible
31 Jul 4.1 18:41:49 10° S 18:47:56 80° W 18:54:08 10° N visible
01 Aug 5.2 19:07:40 10° SSW 19:13:27 43° WNW 19:19:16 10° N visible
02 Aug 6.2 19:34:22 10° SW 19:39:07 23° WNW 19:43:56 10° NNW visible
